TimeEDT,TemperatureF,Dew PointF,Humidity,Sea Level PressureIn,VisibilityMPH,Wind Direction,Wind SpeedMPH,Gust SpeedMPH,PrecipitationIn,Events,Conditions,WindDirDegrees,DateUTC
12:53 AM,73.0,71.1,93,30.04,10.0,Calm,Calm,-,N/A,,Clear,0,2012-09-23 04:53:00
1:53 AM,70.0,68.0,93,30.05,10.0,Calm,Calm,-,N/A,,Clear,0,2012-09-23 05:53:00
2:53 AM,70.0,68.0,93,30.04,10.0,Calm,Calm,-,N/A,,Clear,0,2012-09-23 06:53:00
3:53 AM,70.0,68.0,93,30.03,10.0,Calm,Calm,-,N/A,,Clear,0,2012-09-23 07:53:00
4:53 AM,70.0,68.0,93,30.03,9.0,Calm,Calm,-,N/A,,Clear,0,2012-09-23 08:53:00
5:53 AM,68.0,66.0,93,30.04,10.0,Calm,Calm,-,N/A,,Clear,0,2012-09-23 09:53:00
6:53 AM,68.0,66.0,93,30.06,10.0,Calm,Calm,-,N/A,,Clear,0,2012-09-23 10:53:00
7:53 AM,70.0,66.9,90,30.06,10.0,Calm,Calm,-,N/A,,Clear,0,2012-09-23 11:53:00
8:53 AM,75.9,72.0,87,30.07,10.0,WNW,5.8,-,N/A,,Clear,290,2012-09-23 12:53:00
9:53 AM,81.0,71.1,72,30.07,10.0,WNW,5.8,-,N/A,,Clear,300,2012-09-23 13:53:00
10:53 AM,84.0,70.0,63,30.08,10.0,NW,5.8,-,N/A,,Clear,310,2012-09-23 14:53:00
11:53 AM,86.0,66.9,53,30.08,10.0,North,11.5,-,N/A,,Clear,360,2012-09-23 15:53:00
12:53 PM,87.1,66.0,49,30.07,10.0,NW,6.9,-,N/A,,Clear,320,2012-09-23 16:53:00
1:53 PM,88.0,64.9,46,30.05,10.0,NW,10.4,16.1,N/A,,Partly Cloudy,320,2012-09-23 17:53:00
2:53 PM,89.1,64.9,45,30.03,10.0,North,8.1,-,N/A,,Clear,350,2012-09-23 18:53:00
3:53 PM,89.1,64.0,43,30.02,10.0,North,10.4,-,N/A,,Scattered Clouds,360,2012-09-23 19:53:00
4:53 PM,88.0,62.1,42,30.01,10.0,WNW,10.4,-,N/A,,Clear,300,2012-09-23 20:53:00
5:53 PM,86.0,61.0,43,30.02,10.0,NNW,6.9,-,N/A,,Clear,330,2012-09-23 21:53:00
6:53 PM,82.0,57.0,42,30.04,10.0,NW,6.9,-,N/A,,Clear,320,2012-09-23 22:53:00
7:53 PM,75.9,57.0,52,30.06,10.0,NNW,4.6,-,N/A,,Clear,330,2012-09-23 23:53:00
8:53 PM,73.0,55.0,53,30.08,10.0,NNW,4.6,-,N/A,,Clear,330,2012-09-24 00:53:00
9:53 PM,72.0,53.1,51,30.09,10.0,North,3.5,-,N/A,,Clear,350,2012-09-24 01:53:00
10:53 PM,68.0,55.9,65,30.11,10.0,Calm,Calm,-,N/A,,Clear,0,2012-09-24 02:53:00
11:53 PM,64.0,57.9,80,30.11,10.0,Calm,Calm,-,N/A,,Clear,0,2012-09-24 03:53:00